Wind_Speed
12 11 11 11 11 11 10 9 9 8 7 7 7 6 6 6 6 6 5 5 5 5 5 5 5 5 5 5 6 6 6 7 7 8 8 9 9 10 10 10 11 11 11
14 13 12 12 12 11 11 11 10 9 9 8 8 7 7 7 7 7 7 7 7 7 7 7 7 7 7 8 8 8 8 8 9 9 10 10 10 11 11 12 12 12 12
15 14 14 13 13 13 12 12 11 11 10 10 9 9 9 9 9 9 9 9 9 8 9 9 9 9 9 10 10 10 11 11 11 11 11 12 12 12 13 13 13 13 13
17 16 15 15 14 14 14 13 13 12 12 12 11 11 11 11 11 11 11 11 11 11 11 11 11 11 11 12 12 12 12 13 13 13 13 13 13 14 14 14 14 15 15
18 17 17 16 16 15 15 15 14 14 14 14 13 13 13 13 13 13 12 12 12 13 13 13 13 13 13 13 13 14 14 14 14 14 14 14 15 15 15 16 16 17 17
19 19 18 18 17 17 16 16 15 15 15 15 15 15 15 15 15 15 14 14 14 14 15 15 15 15 15 15 15 15 15 15 15 16 16 17 17 17 18 18 18 19 19
21 20 20 19 19 18 18 17 17 17 17 17 17 17 17 17 17 17 17 17 17 17 17 17 17 17 17 17 16 16 17 17 17 18 18 19 19 19 20 20 21 21 22
22 22 22 21 20 19 18 18 18 18 18 18 18 18 18 18 18 18 19 19 18 18 18 18 18 18 18 18 18 18 18 19 20 20 21 21 21 22 22 23 23 23 24
24 23 23 23 22 21 20 20 19 19 19 19 19 19 19 19 20 20 20 20 20 20 20 20 20 20 20 20 20 20 21 21 22 23 23 23 23 23 24 24 25 25 25
25 25 24 24 23 23 22 22 21 21 20 20 20 20 20 21 21 21 21 20 20 20 20 20 21 21 21 22 22 22 23 23 24 24 24 24 24 25 25 26 26 26 26
27 26 26 26 25 24 24 24 23 22 22 22 22 22 21 21 22 22 22 22 21 21 21 21 22 22 22 23 23 24 24 24 25 25 26 26 27 27 28 28 28 28 28
29 28 28 28 27 26 26 25 24 24 23 23 22 22 22 22 22 22 22 23 23 22 23 23 23 24 24 24 25 25 25 26 27 27 28 28 29 29 30 30 30 30 31
31 30 29 29 29 28 27 27 26 26 25 24 24 23 23 23 23 23 23 23 24 24 24 25 25 25 25 25 26 26 27 28 28 29 30 30 31 31 32 32 32 32 32
32 31 31 31 30 30 29 28 28 27 27 26 25 25 25 24 24 24 24 24 25 25 25 25 26 26 26 27 28 28 29 30 30 31 32 32 32 33 33 34 34 34 34
34 33 33 32 32 31 31 30 29 29 28 28 27 27 26 26 26 26 26 26 26 26 26 27 27 28 29 30 30 31 31 32 32 32 32 33 33 33 34 34 35 35 35
36 35 34 34 33 32 32 31 30 30 30 29 29 29 28 28 28 27 28 28 28 28 28 29 29 30 30 31 31 32 32 32 33 33 34 34 34 35 35 35 35 35 35
38 37 36 35 34 34 33 32 32 31 31 31 30 30 30 30 29 29 29 29 29 30 30 30 30 31 31 32 32 32 32 33 34 34 35 35 36 36 36 36 36 37 37
39 38 37 37 36 35 34 33 33 33 32 32 32 31 31 31 31 31 31 31 31 31 31 32 32 32 33 33 33 33 34 34 35 35 36 36 37 37 38 38 38 39 39
41 40 39 38 37 37 36 35 35 34 34 34 33 33 33 33 32 32 32 32 32 32 32 32 33 33 34 34 34 35 35 36 36 37 38 38 39 39 39 39 40 41 41
42 41 40 40 39 38 37 37 36 35 35 35 35 34 34 34 33 33 33 33 32 33 33 33 34 35 35 35 35 36 37 37 38 39 39 40 40 41 41 41 42 42 43
42 41 41 40 40 39 39 38 38 37 37 36 36 36 35 35 35 34 34 34 34 34 34 35 35 36 36 37 37 37 38 38 39 39 40 40 41 41 41 42 43 43 44
42 41 41 41 41 40 40 40 39 39 38 38 37 36 36 36 35 35 35 35 35 36 36 36 37 37 37 38 38 38 38 38 39 39 40 40 41 41 42 43 44 44 45
42 42 42 41 41 41 41 40 40 40 39 39 38 37 37 36 36 36 37 37 37 38 38 38 39 39 39 39 39 40 40 40 39 39 40 41 42 43 44 45 45 46 47
43 43 42 42 41 41 41 41 41 40 40 40 39 39 38 38 38 38 38 38 39 39 40 40 41 40 40 40 41 41 41 41 41 40 40 42 43 44 45 46 46 47 48
44 44 43 43 42 42 42 42 42 41 41 40 40 40 40 40 40 40 40 40 41 41 41 42 41 41 41 41 41 41 41 42 42 42 42 43 44 45 46 47 48 49 50
44 44 44 43 43 43 43 43 42 42 41 41 41 41 42 42 42 42 42 42 42 42 41 41 41 41 41 42 42 42 42 42 43 43 44 44 44 45 46 47 48 49 50
Wind_Direction
228 228 227 223 218 214 213 212 212 213 215 216 220 222 226 229 228 230 233 235 239 244 246 249 259 267 274 280 285 288 290 292 293 295 297 298 300 302 302 304 305 306 305
230 229 228 226 222 218 214 214 215 218 220 224 229 233 235 239 239 241 243 246 250 252 254 256 263 269 273 278 282 285 287 288 288 290 292 294 296 297 298 299 300 301 303
231 231 230 228 226 223 219 218 221 225 228 231 234 239 241 243 246 249 249 252 253 255 258 262 266 270 272 275 278 281 283 284 287 289 290 291 292 293 293 294 296 297 299
232 232 231 230 229 227 225 224 226 229 234 237 240 242 244 246 248 250 252 254 256 257 260 263 266 270 272 275 276 278 280 282 285 287 288 289 290 291 291 292 294 294 296
234 234 233 232 231 230 230 229 230 232 237 241 243 244 245 246 247 249 253 256 258 260 262 263 266 269 272 274 275 277 279 281 283 285 286 287 289 290 291 291 292 293 294
235 235 235 233 232 231 232 233 235 237 240 243 246 248 249 250 250 252 254 257 260 262 265 266 268 270 272 273 274 275 276 278 281 283 284 286 288 289 290 291 291 291 292
234 235 235 234 233 234 235 237 239 241 243 246 248 250 251 253 254 255 256 259 261 263 265 267 269 270 272 272 273 274 275 277 279 281 283 284 285 287 288 290 290 290 291
233 233 234 235 235 237 238 240 242 244 246 248 250 251 253 255 256 257 258 259 261 263 266 267 268 270 271 272 273 274 275 278 280 281 283 284 284 286 287 289 289 290 290
233 234 236 237 238 239 241 243 245 247 249 251 252 254 255 257 258 258 259 260 262 265 267 268 269 270 271 272 273 274 276 278 280 281 282 283 284 285 287 288 289 290 290
233 234 237 239 240 242 243 245 246 248 251 252 254 255 256 258 259 259 260 261 264 266 268 269 270 271 272 273 274 276 277 278 279 281 281 282 284 285 286 288 289 289 289
234 235 238 240 242 243 244 246 247 249 251 253 255 255 256 257 258 260 261 263 264 266 268 270 271 272 273 274 275 277 278 279 280 280 281 282 283 285 286 287 288 289 289
235 236 238 241 243 243 245 246 248 250 252 253 254 256 257 258 259 260 261 263 264 265 268 270 272 273 274 275 276 277 279 279 280 280 281 282 283 285 285 286 287 288 288
236 237 239 241 242 244 246 247 248 250 251 252 253 255 256 258 259 260 262 263 265 266 268 271 273 274 275 276 277 279 280 281 281 281 282 283 283 285 285 286 286 287 287
237 238 240 241 242 244 246 247 248 249 250 252 253 254 256 257 259 260 262 264 265 267 269 271 273 275 276 277 278 279 280 281 282 282 282 283 284 284 285 286 286 287 287
238 239 240 241 243 245 246 247 248 249 250 252 253 254 256 258 259 260 262 265 266 268 270 272 274 276 277 279 280 280 281 282 282 282 283 284 284 285 286 287 287 287 287
238 239 241 242 243 245 246 247 248 249 251 252 254 255 257 258 260 261 263 265 267 270 272 274 276 278 279 279 280 281 282 282 282 283 283 284 285 285 286 286 287 287 287
238 239 240 242 243 245 246 247 248 250 251 252 254 256 258 260 261 263 264 266 269 271 273 275 277 278 279 279 280 281 281 282 282 283 284 284 284 285 285 286 286 287 287
239 240 240 241 243 244 245 247 248 249 251 252 254 256 258 261 262 264 265 268 270 272 273 275 277 278 278 280 280 281 282 282 283 284 285 285 285 285 286 286 286 287 287
239 240 241 242 243 244 245 247 248 249 251 252 254 256 258 260 262 264 266 268 270 272 274 275 277 278 279 279 280 281 282 282 283 284 284 285 285 286 286 287 287 287 288
239 240 241 243 244 245 245 247 248 249 250 253 255 257 259 261 262 264 265 268 271 272 274 276 278 279 279 280 280 281 282 283 283 284 284 285 286 286 287 287 288 288 288
239 240 241 243 244 244 245 247 248 249 250 252 255 257 259 261 262 263 265 268 271 272 274 276 278 279 279 280 280 281 282 283 284 284 285 286 287 287 287 287 288 289 289
239 240 240 242 243 244 246 247 248 249 250 252 255 257 259 261 262 263 265 269 271 272 274 276 278 279 279 280 281 282 282 283 284 284 286 287 287 288 288 288 288 289 289
239 240 241 242 243 244 246 247 248 250 251 253 255 257 259 260 262 264 266 269 271 273 275 276 278 279 279 280 281 282 282 282 283 284 285 286 287 287 288 289 289 289 290
239 240 241 242 243 244 246 247 248 250 252 254 255 257 259 261 263 266 268 269 271 273 275 276 278 278 279 280 281 282 283 284 284 284 284 286 287 288 288 289 290 291 292
238 239 241 242 243 244 245 247 249 250 252 254 256 258 260 262 264 267 269 270 272 274 276 277 277 278 279 280 281 282 282 283 284 286 286 287 288 289 289 290 291 292 293
239 239 240 241 242 244 245 247 249 251 253 255 257 259 261 263 265 267 269 271 272 274 275 276 277 278 279 280 281 282 283 284 285 286 287 288 288 290 290 290 292 293 294
Height
5874 5875 5876 5877 5878 5878 5879 5880 5881 5881 5882 5882 5883 5883 5884 5884 5884 5884 5885 5885 5885 5885 5885 5885 5885 5885 5885 5884 5884 5884 5883 5883 5882 5882 5881 5881 5880 5879 5879 5878 5877 5876 5875
5872 5873 5874 5875 5876 5877 5878 5879 5880 5880 5881 5882 5882 5882 5883 5883 5883 5883 5884 5884 5884 5884 5884 5884 5884 5884 5883 5883 5883 5882 5882 5882 5881 5880 5880 5879 5878 5878 5877 5876 5875 5874 5874
5870 5871 5872 5874 5875 5876 5876 5877 5878 5879 5880 5881 5881 5881 5882 5882 5882 5882 5882 5883 5883 5883 5883 5882 5882 5882 5882 5882 5881 5881 5881 5880 5879 5879 5878 5877 5877 5876 5875 5874 5873 5872 5872
5868 5869 5870 5872 5873 5874 5875 5876 5876 5877 5878 5879 5880 5880 5880 5880 5881 5881 5881 5881 5881 5881 5881 5881 5881 5880 5880 5880 5879 5879 5879 5878 5878 5877 5876 5875 5875 5874 5873 5872 5871 5870 5869
5865 5866 5868 5869 5870 5871 5872 5874 5874 5875 5876 5877 5877 5878 5878 5878 5879 5879 5879 5879 5879 5879 5879 5879 5879 5878 5878 5878 5877 5877 5876 5876 5875 5875 5874 5873 5872 5871 5871 5870 5869 5868 5867
5862 5863 5865 5866 5868 5869 5870 5871 5872 5873 5874 5874 5875 5875 5876 5876 5876 5877 5877 5877 5877 5877 5877 5876 5876 5876 5876 5875 5875 5875 5874 5873 5873 5872 5871 5870 5870 5869 5868 5867 5866 5865 5864
5858 5860 5861 5863 5865 5866 5867 5868 5869 5870 5871 5872 5872 5873 5873 5873 5874 5874 5874 5874 5874 5874 5874 5874 5874 5873 5873 5873 5872 5872 5871 5871 5870 5869 5868 5867 5866 5866 5865 5864 5863 5861 5860
5855 5856 5858 5859 5861 5862 5864 5865 5866 5867 5868 5869 5869 5870 5870 5870 5871 5871 5871 5871 5871 5871 5871 5871 5871 5870 5870 5870 5869 5869 5868 5867 5867 5866 5865 5864 5863 5862 5861 5860 5859 5857 5856
5851 5852 5854 5856 5857 5859 5860 5862 5863 5864 5864 5865 5866 5866 5867 5867 5867 5868 5868 5868 5868 5868 5868 5867 5867 5867 5867 5866 5866 5865 5865 5864 5863 5862 5861 5860 5859 5858 5857 5856 5854 5853 5852
5846 5848 5850 5852 5854 5855 5856 5858 5859 5860 5861 5862 5862 5863 5863 5863 5864 5864 5864 5864 5864 5864 5864 5864 5863 5863 5863 5862 5862 5861 5861 5860 5859 5858 5856 5856 5855 5853 5852 5851 5850 5848 5847
5842 5844 5846 5848 5849 5851 5852 5854 5855 5856 5857 5858 5858 5859 5859 5859 5860 5860 5860 5860 5861 5860 5860 5860 5860 5859 5859 5858 5858 5857 5856 5855 5854 5853 5852 5851 5850 5849 5847 5846 5845 5843 5842
5837 5839 5841 5843 5845 5846 5848 5849 5851 5852 5853 5853 5854 5854 5855 5855 5856 5856 5856 5856 5856 5856 5856 5856 5856 5855 5854 5854 5853 5852 5852 5851 5849 5848 5847 5846 5845 5843 5842 5841 5839 5838 5836
5831 5834 5836 5838 5840 5841 5843 5844 5846 5847 5848 5849 5849 5850 5851 5851 5851 5852 5852 5852 5852 5852 5852 5852 5851 5851 5850 5849 5848 5848 5846 5845 5844 5843 5842 5840 5839 5838 5836 5835 5833 5831 5830
5825 5828 5830 5832 5834 5836 5838 5839 5841 5842 5843 5844 5845 5845 5846 5847 5847 5847 5848 5848 5848 5848 5847 5847 5847 5846 5845 5844 5843 5842 5841 5840 5838 5837 5836 5834 5833 5831 5830 5828 5826 5825 5823
5819 5822 5824 5826 5828 5830 5832 5833 5835 5836 5838 5839 5839 5840 5841 5842 5842 5842 5843 5843 5843 5843 5842 5842 5841 5841 5840 5839 5837 5836 5835 5834 5832 5831 5829 5828 5826 5825 5823 5821 5819 5817 5816
5812 5815 5818 5820 5822 5824 5826 5828 5829 5831 5832 5833 5834 5835 5835 5836 5837 5837 5838 5838 5837 5837 5837 5837 5836 5835 5834 5833 5831 5830 5828 5827 5825 5824 5822 5821 5819 5817 5816 5814 5812 5810 5808
5805 5808 5811 5813 5816 5818 5820 5822 5823 5825 5826 5827 5828 5829 5830 5830 5831 5832 5832 5832 5832 5831 5831 5830 5829 5829 5827 5826 5825 5823 5822 5820 5818 5817 5815 5813 5812 5810 5808 5806 5804 5802 5800
5798 5801 5803 5806 5809 5811 5813 5815 5817 5818 5820 5821 5822 5823 5824 5824 5825 5825 5826 5826 5825 5825 5825 5824 5823 5822 5821 5819 5818 5816 5815 5813 5811 5809 5807 5805 5804 5802 5800 5798 5796 5794 5792
5790 5793 5796 5799 5801 5804 5806 5808 5810 5812 5813 5814 5816 5817 5817 5818 5819 5819 5819 5819 5819 5818 5818 5817 5816 5815 5813 5812 5810 5809 5807 5805 5803 5801 5799 5797 5795 5793 5791 5789 5787 5785 5783
5782 5785 5788 5791 5794 5796 5799 5801 5803 5805 5806 5808 5809 5810 5811 5811 5812 5812 5812 5812 5812 5811 5811 5810 5809 5807 5806 5804 5803 5801 5799 5797 5795 5793 5791 5789 5787 5784 5782 5780 5778 5776 5773
5773 5777 5780 5783 5785 5788 5791 5793 5795 5797 5799 5800 5801 5802 5804 5804 5805 5805 5805 5805 5805 5804 5803 5802 5801 5800 5798 5796 5795 5793 5791 5789 5787 5785 5782 5780 5778 5775 5773 5770 5768 5766 5763
5765 5768 5771 5774 5777 5780 5783 5785 5787 5789 5791 5792 5794 5795 5796 5796 5797 5797 5798 5797 5797 5796 5795 5794 5793 5792 5790 5788 5786 5785 5783 5782 5779 5776 5774 5771 5769 5766 5764 5761 5758 5756 5752
5757 5760 5763 5766 5769 5772 5774 5777 5779 5781 5783 5785 5786 5787 5788 5788 5789 5789 5789 5789 5789 5788 5787 5786 5785 5783 5782 5780 5778 5776 5774 5772 5771 5769 5765 5763 5760 5757 5755 5752 5748 5745 5741
5747 5751 5754 5757 5760 5763 5766 5768 5771 5773 5775 5777 5778 5779 5780 5780 5781 5781 5781 5781 5780 5780 5779 5777 5776 5774 5773 5771 5769 5766 5764 5762 5760 5759 5757 5754 5751 5748 5744 5741 5738 5734 5730
5738 5741 5745 5748 5751 5754 5757 5760 5762 5764 5766 5768 5769 5770 5771 5772 5772 5772 5772 5772 5771 5770 5769 5768 5767 5765 5764 5762 5760 5757 5755 5752 5750 5748 5746 5744 5741 5738 5734 5731 5727 5723 5719
5729 5732 5736 5739 5742 5745 5748 5751 5753 5755 5757 5759 5760 5761 5762 5763 5763 5763 5763 5762 5762 5761 5760 5758 5757 5756 5754 5752 5750 5748 5745 5743 5740 5737 5735 5733 5731 5728 5724 5720 5716 5711 5707